GFSWCAN_700_temp_276.txt.gz
Temp
4 4 4 4 5 5 5 5 5 5 5 5 5 6 5 5 6 6 6 6 6 7 7 7 7 8 7 6 6 7 7 8 9 10 10 10 11 8 8 8 8 6 8 8 8 11 11 12 12 13 15 16 17 18
4 4 4 4 4 4 5 5 5 5 5 5 5 5 5 5 5 5 5 6 6 6 8 7 8 8 8 7 7 6 6 8 8 9 9 10 9 7 6 7 9 7 7 6 4 10 11 12 11 12 14 15 16 17
4 4 4 4 4 4 4 4 4 5 5 5 5 5 5 5 5 5 5 5 5 6 8 8 8 6 8 8 7 7 7 7 6 7 8 8 8 7 6 8 8 6 6 6 7 10 10 11 11 10 13 12 10 14
4 4 4 4 4 4 4 4 4 4 4 4 4 5 5 5 5 5 5 5 5 5 6 7 5 5 6 7 7 7 7 7 6 6 6 7 8 8 8 8 8 7 7 6 6 9 9 8 8 6 7 11 11 12
4 4 4 4 4 4 4 4 4 4 4 4 4 4 4 4 4 5 5 4 4 4 4 6 6 6 5 5 5 5 5 6 6 5 6 7 7 8 8 8 8 8 7 7 8 8 5 6 7 6 5 8 9 12
4 4 4 4 4 4 4 4 3 3 4 4 4 4 4 4 4 4 3 4 3 3 2 3 5 6 6 5 4 4 4 4 5 5 5 6 7 7 8 8 8 7 8 7 5 7 6 6 7 8 9 10 10 10
4 4 4 4 4 4 4 3 3 3 4 4 4 4 4 3 3 3 3 3 2 2 1 2 3 5 5 5 4 4 4 4 4 5 5 6 6 7 8 8 9 9 6 7 6 7 8 8 8 8 9 10 10 10
3 3 4 4 4 4 3 3 3 3 4 3 3 3 3 4 3 3 3 3 2 1 1 0 2 4 4 4 5 5 5 5 4 5 5 6 6 7 7 8 8 8 8 8 5 7 8 8 8 8 8 8 9 9
3 3 3 4 4 3 3 3 3 3 3 3 3 3 3 3 3 3 2 2 2 1 -1 0 1 2 2 3 3 3 4 5 5 5 5 6 7 8 8 8 8 8 7 7 7 7 7 7 6 7 8 7 8 8
2 3 3 4 3 3 3 3 3 3 3 3 3 3 3 3 2 2 2 2 2 2 1 1 -0 -0 1 1 2 2 3 4 6 6 6 6 7 7 8 8 7 7 7 7 6 6 6 7 7 7 7 7 7 7
2 2 3 3 3 3 3 3 3 3 3 3 2 0 1 2 2 2 2 2 1 1 1 2 1 1 1 1 2 2 1 3 4 6 6 7 7 7 7 7 6 6 7 7 6 6 6 6 6 6 7 7 7 7
2 2 3 3 3 3 2 3 3 3 2 2 2 2 1 1 0 0 1 1 1 1 1 2 2 1 2 1 2 3 3 4 4 4 5 4 5 6 5 6 5 6 6 6 6 6 6 6 7 7 7 6 7 6
1 2 3 3 3 2 2 3 3 3 2 3 2 1 0 0 1 1 2 2 1 1 1 1 1 1 2 2 2 3 4 4 4 4 3 5 5 5 6 3 3 5 6 6 6 5 5 5 7 7 7 7 6 6
2 2 2 2 3 2 2 3 2 2 2 2 1 1 1 2 2 2 2 2 2 2 1 1 1 1 1 1 2 2 3 4 3 6 6 4 4 4 3 4 4 4 5 5 6 6 6 5 7 7 7 6 6 6
1 2 2 2 2 2 2 2 2 2 2 2 1 2 2 2 2 2 2 1 1 2 1 1 1 1 1 2 2 2 2 3 5 5 4 4 4 3 4 4 4 4 5 5 5 6 6 6 6 6 7 5 6 7
1 2 2 2 2 2 2 2 2 2 2 2 2 3 3 2 2 2 2 2 2 1 1 1 1 1 2 2 2 3 4 4 3 3 2 3 3 3 3 3 4 4 4 4 5 5 6 6 6 6 5 6 7 5
1 2 2 2 2 2 2 2 2 2 2 1 2 2 2 3 2 2 2 2 2 1 1 1 1 1 2 2 2 3 3 2 1 2 2 2 2 3 3 4 4 4 4 4 5 6 6 6 6 5 6 5 5 6
1 2 2 2 2 2 2 2 2 2 3 3 2 3 3 2 2 2 1 2 2 1 1 0 0 0 0 1 1 1 2 1 1 1 1 1 1 2 3 3 4 4 4 4 4 5 6 6 6 5 5 5 5 6
1 2 2 2 2 2 2 2 2 2 2 3 3 3 3 3 1 2 1 2 2 1 1 0 -0 -0 0 0 0 1 1 1 2 2 2 1 1 1 2 3 3 4 4 4 4 5 5 5 6 5 4 5 4 5
1 1 1 1 2 1 1 0 2 2 3 3 3 3 3 2 2 2 1 1 1 1 0 -1 -1 -1 -1 -1 -0 0 1 1 1 1 2 2 2 1 2 2 3 4 4 4 4 4 4 5 5 4 4 4 4 4
1 1 1 1 1 1 1 -0 1 1 2 2 3 3 2 2 2 2 1 1 1 1 -1 -1 -1 -1 -0 0 1 0 0 1 1 1 1 1 2 2 2 2 2 3 4 4 4 4 4 4 4 4 4 2 1 1
1 1 1 1 1 1 2 2 2 1 2 2 3 2 2 2 2 1 1 1 1 0 -1 -1 -1 -1 -0 1 0 0 1 1 1 1 1 1 1 2 2 2 3 3 3 4 3 3 3 3 2 3 2 3 1 1
0 1 1 1 1 1 2 2 1 1 2 3 3 2 2 3 2 1 1 1 1 0 0 0 -1 -1 -1 -1 -1 -0 -0 -0 0 1 1 1 1 1 1 2 2 2 3 3 3 3 2 2 3 2 2 1 0 1
0 1 1 -1 1 2 1 1 1 2 2 2 3 3 2 2 2 1 1 1 1 1 1 -0 -0 -1 -1 -1 -1 -1 -1 -1 -1 -1 -2 -0 -0 -0 -0 0 1 1 2 3 2 2 2 2 1 1 1 2 1 1
0 1 1 1 0 1 1 2 2 2 2 2 2 2 2 2 2 2 1 1 1 1 1 1 -0 -1 -0 -1 -1 -1 -2 -1 -2 -2 -2 -2 -1 -1 -1 -2 -1 -0 0 1 -0 -0 -0 -0 0 0 0 1 1 1
1 1 1 1 1 2 2 2 2 2 2 2 2 2 2 2 2 1 1 1 1 0 1 1 1 -0 -0 -0 -0 -0 -0 -0 -0 -1 -1 -1 -1 -1 -1 -1 -1 -1 -1 -1 -0 -0 -0 -0 -0 1 0 0 0 1
1 1 1 2 2 2 2 2 2 2 1 2 3 2 1 2 2 2 2 1 1 1 1 1 0 0 0 0 0 -0 -0 -1 -1 -0 -1 -1 -1 -1 -1 -1 -1 -1 -1 -1 -1 -1 -1 -0 -0 -0 -0 1 1 0
1 1 1 2 2 2 2 2 3 2 2 2 3 2 2 2 2 2 1 1 1 1 1 1 1 1 1 0 0 0 1 -1 -0 -0 -0 -1 -0 -0 -0 -0 -0 -0 0 1 -0 -1 -1 -0 -0 -0 -0 0 0 0
1 1 1 1 2 2 2 2 1 3 3 2 2 1 2 2 2 2 1 1 1 1 1 1 1 1 1 1 1 1 -0 1 0 -0 0 1 0 -0 -0 -1 -1 -1 0 1 1 0 -0 -0 -1 -1 -1 -1 0 -0
1 1 1 1 2 1 2 3 3 3 2 2 3 2 2 2 1 1 1 1 1 1 1 1 1 1 1 1 1 1 1 1 1 -0 1 1 0 -0 -0 -1 -1 -1 -1 -1 -1 -1 -1 -1 -1 -1 -2 -2 -2 -2
1 1 2 2 3 3 3 3 2 2 2 2 2 2 2 1 1 1 1 1 1 1 1 1 1 2 1 1 0 1 1 1 1 1 1 1 0 -0 -0 -1 -1 -2 -2 -2 -2 -2 -2 -1 -0 -0 -1 -1 -1 -2
2 2 2 2 3 2 2 2 2 2 2 2 1 1 2 1 2 1 1 1 1 1 1 1 1 1 1 1 1 1 1 1 0 0 1 0 -0 -0 -0 -0 -1 -1 -2 -2 -2 -3 -3 -2 -3 -3 -2 -2 -2 -1
2 2 2 3 1 2 2 2 3 1 2 2 1 2 2 2 2 2 2 1 1 1 1 1 1 1 1 1 1 1 1 1 0 0 0 0 0 -0 -1 -1 -1 -1 -1 -1 -2 -3 -3 -3 -3 -3 -2 -2 -2 -2

GFSWCAN_700_temp_279.txt.gz
Temp
4 4 4 4 5 5 5 5 5 5 5 5 6 6 6 6 6 6 6 7 6 7 8 8 7 7 8 7 7 8 7 8 9 9 9 9 10 9 9 9 8 9 8 8 8 8 8 9 11 10 9 12 13 14
4 4 4 4 4 5 5 5 5 5 5 5 5 5 5 5 5 5 5 5 6 7 8 7 8 8 8 8 7 7 7 8 7 8 8 8 7 8 8 7 7 7 8 8 7 9 10 11 11 10 11 10 12 12
4 4 4 4 4 4 4 5 5 5 5 4 4 5 5 5 5 5 5 5 6 6 8 9 8 8 7 7 6 7 8 7 7 7 7 7 7 7 7 7 7 7 7 7 7 9 9 10 11 11 11 11 12 12
4 4 4 4 4 4 4 4 5 5 4 4 4 4 5 5 5 5 5 5 5 6 7 8 7 7 6 6 7 6 7 7 6 7 7 7 7 7 7 8 7 8 7 6 7 7 9 9 10 10 10 10 11 12
4 4 4 4 4 4 4 4 5 4 4 4 4 4 4 5 5 5 5 4 4 4 5 8 7 7 6 6 5 5 5 6 6 6 6 6 7 7 7 8 7 8 8 7 6 7 8 9 8 8 6 8 9 8
3 3 4 4 4 4 4 4 4 4 4 4 4 4 4 4 4 4 5 4 4 4 4 6 6 5 6 5 5 5 5 5 4 5 5 6 6 6 6 7 7 7 7 7 7 6 8 7 7 7 6 7 7 6
3 3 3 4 4 4 4 4 4 4 4 4 4 4 4 4 4 4 4 4 4 3 3 4 5 4 4 4 4 4 5 4 4 4 4 5 5 6 6 6 7 7 8 7 7 8 7 8 8 6 8 8 9 9
2 2 3 3 3 4 4 4 4 4 4 4 4 4 4 4 4 3 4 3 3 3 3 3 3 3 2 4 4 4 4 4 4 4 4 4 5 5 6 7 8 7 7 7 7 7 9 7 8 7 7 8 8 7
2 2 2 3 3 3 3 3 3 3 4 3 4 4 4 4 4 4 3 3 3 3 3 2 1 1 2 2 2 3 3 3 4 5 5 4 5 6 7 7 8 8 8 7 7 7 7 8 7 8 7 7 8 8
2 2 2 2 3 3 3 3 3 3 3 3 3 3 4 3 3 3 3 3 3 3 3 3 1 1 1 1 2 2 3 2 2 5 5 5 5 6 6 7 6 7 7 7 7 7 6 6 6 7 7 7 7 7
1 2 1 2 2 3 3 3 3 3 3 3 3 3 3 2 2 2 2 3 2 2 3 2 2 1 1 1 1 2 2 1 1 4 5 6 6 6 6 6 6 6 7 7 7 7 7 7 7 6 6 7 7 7
1 1 2 2 2 3 3 3 3 3 3 3 3 3 2 2 1 1 2 2 2 1 1 2 2 2 2 2 2 2 2 2 3 4 5 5 6 6 6 5 6 6 5 6 5 6 7 7 7 6 7 7 7 7
2 2 2 2 2 3 3 2 3 3 3 2 2 2 1 0 2 2 2 2 2 2 2 2 2 2 2 1 2 2 3 4 4 3 4 5 5 5 5 6 6 6 6 3 5 6 6 6 5 6 5 6 7 7
2 1 1 1 2 2 2 2 3 2 2 2 2 1 2 2 2 2 2 2 2 2 2 2 1 1 2 2 2 2 3 4 4 5 5 4 5 5 5 5 5 5 4 4 5 5 6 6 6 5 5 5 6 7
1 1 0 1 2 2 2 2 2 2 2 2 1 2 2 3 2 3 3 2 2 2 1 1 2 2 2 2 2 2 3 4 3 3 3 3 3 3 4 4 4 4 4 4 4 5 5 6 6 6 5 5 6 6
1 1 1 1 2 2 2 2 2 2 2 2 2 3 3 2 3 3 2 2 2 2 2 2 2 1 1 2 2 3 3 2 2 2 2 2 2 3 3 3 4 4 4 4 4 5 5 5 6 6 5 6 6 6
0 0 1 1 2 2 2 2 2 2 2 3 4 3 3 3 3 2 2 2 2 2 2 1 1 2 2 2 2 1 1 1 1 1 1 2 1 3 3 3 3 4 4 4 5 5 5 5 6 5 5 5 6 5
1 0 1 1 1 2 2 2 2 2 3 3 3 3 3 3 2 2 2 2 1 2 2 1 1 0 0 0 1 1 1 1 1 1 1 1 2 2 2 3 3 3 4 4 5 5 5 6 5 5 5 5 5 2
1 0 0 0 1 1 2 2 2 2 3 3 3 3 2 3 2 2 2 1 1 2 2 1 0 -0 -0 -1 -1 0 0 1 1 2 2 1 1 2 2 2 2 3 4 4 4 4 5 5 5 5 4 5 5 5
0 1 0 0 1 1 1 1 1 1 3 3 3 3 3 2 2 3 2 1 2 2 1 -0 -1 -1 -1 -1 -0 0 0 2 2 2 2 2 1 2 2 2 3 3 3 4 4 4 4 4 5 5 5 4 4 4
0 0 0 1 1 1 1 1 1 1 2 3 3 3 3 3 3 2 1 1 2 1 1 1 -1 -1 -0 -0 0 1 0 0 1 1 1 1 1 1 2 2 3 3 3 3 4 4 3 3 4 4 4 4 4 3
-0 0 0 0 1 1 1 2 2 1 1 3 3 3 3 2 2 2 2 2 1 1 1 -0 -1 -1 -1 -1 -1 -1 -0 1 1 1 1 1 1 1 1 1 2 3 3 3 3 3 3 3 2 3 3 3 3 2
0 0 0 0 1 1 2 2 2 2 1 2 2 2 3 3 3 2 2 1 1 1 1 -0 -0 -1 -0 -1 -1 -1 -1 -1 -1 -0 0 0 1 1 1 1 2 2 2 2 3 2 2 2 2 2 2 2 3 2
-0 -0 -0 -0 0 1 1 1 1 1 2 2 2 2 3 2 2 2 1 0 0 1 1 0 -0 -1 -1 -1 -2 -1 -1 -2 -2 -2 -1 -1 -1 -1 -0 1 1 1 1 2 2 2 1 2 2 1 1 1 1 1
-0 0 0 1 0 0 1 2 2 2 3 3 2 2 2 2 2 2 1 1 1 1 1 1 1 0 -0 -1 -1 -1 -1 -1 -1 -1 -1 -1 -2 -2 -1 -1 -1 -1 -1 1 1 1 0 -0 0 0 0 0 1 1
0 1 1 1 2 2 1 2 3 3 3 2 2 2 2 2 2 1 2 2 1 1 1 1 1 0 0 0 -0 -0 -1 -1 -0 -1 -1 -1 -1 -1 -1 -1 -1 -1 -1 -1 -1 -1 -0 -0 -0 -0 -0 -0 0 0
1 1 2 2 2 2 2 2 2 2 2 2 2 2 2 2 2 3 3 2 1 1 1 1 1 0 -0 -0 -0 0 0 0 -1 -0 -0 -0 -1 -1 -1 -1 -0 -1 -1 -1 -0 -0 -1 -1 0 0 0 1 1 1
0 1 2 2 2 2 2 2 1 1 2 3 3 3 3 2 2 2 2 2 1 1 1 1 1 1 1 1 2 1 0 0 -0 -0 -1 -0 -0 -1 -1 -1 -1 0 -0 -1 -1 -1 -1 -1 -0 -0 -1 -0 -1 -1
2 1 1 1 1 2 2 2 2 2 3 3 2 2 2 2 2 2 2 1 1 1 1 1 1 1 1 1 2 1 1 1 -0 -1 0 0 -0 -0 -1 -1 -1 -1 -0 0 -1 -0 -0 -0 -0 -0 -0 -0 -0 -0
2 2 1 2 2 2 2 2 3 3 3 2 2 2 2 2 2 2 2 1 1 1 1 1 1 2 1 1 1 1 1 1 0 -1 -0 0 -0 0 -0 -0 -1 -1 -1 -1 -0 -0 -1 -1 -1 -1 -0 -0 -1 -1
1 1 2 2 2 2 2 3 3 3 3 2 2 2 2 2 1 1 2 1 1 1 1 1 1 1 1 1 1 1 1 1 1 0 -0 -0 -0 -0 -1 -1 -0 -0 -1 -0 0 1 0 0 -0 -0 -0 -1 -0 -1
2 1 2 2 2 2 2 2 1 2 1 2 2 2 2 2 2 1 1 1 1 1 1 1 1 1 0 1 1 1 1 1 1 1 1 0 0 -1 -1 -1 -1 -1 -1 -1 -1 -1 -1 -0 -0 -0 -0 -0 -0 -0
2 2 2 2 2 2 2 1 2 2 2 2 2 2 2 2 2 2 2 2 1 1 1 1 1 0 1 2 1 1 1 1 1 1 1 1 0 -0 -0 -1 -1 -1 -1 -1 -2 -2 -2 -2 -1 -1 -1 -2 -2 -1

GFSWCAN_700_temp_285.txt.gz
Temp
4 4 4 5 5 5 5 5 5 5 5 5 5 5 5 5 5 5 5 6 6 7 7 7 6 6 6 7 7 7 7 8 8 7 7 8 8 9 9 9 9 9 9 8 8 7 8 9 9 9 9 9 9 9
4 4 4 4 4 4 5 5 5 5 5 5 5 5 5 5 4 4 5 5 5 6 6 6 6 6 7 7 7 8 7 6 7 7 6 6 7 7 8 8 8 8 8 8 8 8 8 9 8 8 8 8 8 9
3 3 4 4 4 4 4 5 5 5 5 5 5 5 5 5 5 5 5 5 5 6 7 6 5 6 7 6 6 7 6 5 6 5 6 6 5 6 6 7 7 7 7 8 8 9 8 8 8 7 7 7 8 8
3 3 3 4 4 4 4 5 5 5 5 5 5 5 4 5 5 5 5 5 5 6 6 6 6 6 5 6 6 6 5 5 5 5 4 5 5 5 6 6 6 7 7 7 7 8 8 8 8 7 7 8 8 8
2 3 3 3 3 4 4 4 5 5 5 4 4 4 5 5 5 5 5 5 5 5 6 6 6 4 4 4 5 5 5 4 4 4 4 4 5 4 5 5 6 6 7 7 7 7 7 7 8 8 7 7 7 6
2 2 2 3 3 3 3 4 4 4 4 4 4 4 4 4 5 5 5 5 5 5 6 5 5 4 4 4 4 4 4 4 4 4 4 4 4 4 4 4 6 6 7 6 6 7 7 7 7 7 7 6 6 6
2 1 1 2 2 3 3 3 4 4 4 4 4 4 4 4 4 4 4 4 4 5 5 5 5 4 4 5 4 4 3 3 3 3 4 4 4 4 4 4 5 6 6 6 7 7 7 7 7 7 6 7 6 5
1 1 1 2 2 3 3 3 3 4 4 4 4 4 4 4 4 4 4 4 4 4 4 3 3 4 4 4 4 4 4 4 4 4 3 4 4 4 3 4 5 6 7 7 6 7 7 7 7 7 7 7 6 6
2 2 2 2 2 2 2 3 3 3 4 4 4 4 4 4 3 3 4 4 4 3 3 3 2 2 3 3 3 4 4 4 4 3 3 3 3 4 4 4 5 5 5 6 6 7 7 7 7 6 7 7 7 6
2 2 2 2 2 2 2 2 2 3 3 3 3 4 4 3 3 3 3 3 3 3 3 2 2 2 2 2 2 2 2 2 2 2 2 2 3 4 4 4 4 5 6 6 6 7 7 6 6 6 6 6 7 6
2 2 2 2 2 1 2 2 2 3 3 3 3 3 3 3 3 3 3 3 3 3 3 2 2 2 2 2 2 1 1 1 1 1 0 2 3 4 4 5 4 4 5 6 7 6 6 6 6 6 6 7 6 6
2 2 2 2 1 1 1 2 2 2 2 3 3 3 3 3 2 2 2 3 2 2 2 2 2 2 2 1 1 1 1 1 2 1 1 2 2 3 4 4 4 4 5 5 5 5 6 5 5 6 6 6 6 6
2 2 2 2 2 1 1 1 1 2 2 2 2 3 2 2 2 2 3 2 2 2 2 2 2 1 1 1 1 1 1 2 2 2 2 1 1 3 3 3 3 4 4 4 4 4 4 5 5 5 6 6 5 5
1 2 2 2 2 2 1 1 1 2 2 2 2 2 2 2 3 3 2 2 2 2 2 2 2 2 2 1 1 1 2 2 2 2 2 1 0 1 1 2 3 3 3 4 4 4 4 4 5 5 6 6 6 6
0 1 1 1 -0 -0 0 1 1 1 1 1 2 2 3 3 3 2 2 2 2 2 2 2 3 2 1 1 1 1 2 2 2 1 1 1 1 0 1 2 2 3 3 3 3 4 4 4 4 5 5 6 6 6
-1 1 1 0 0 -0 0 1 1 1 1 1 2 4 3 3 2 2 2 2 2 2 2 2 2 1 1 1 1 2 2 2 1 0 1 1 1 1 1 1 2 2 3 3 3 4 4 4 5 5 6 6 6 6
-1 -2 0 0 0 1 1 0 1 1 1 2 3 3 3 3 2 2 2 2 2 2 2 2 2 2 1 1 1 1 1 1 0 0 1 0 0 1 1 2 2 2 3 3 3 4 4 4 5 5 6 6 6 6
-1 -1 -1 -0 -1 0 0 0 0 1 2 3 3 3 2 2 2 2 2 2 1 2 1 1 2 1 1 0 0 -0 -1 0 -0 -0 0 -0 0 1 1 1 2 2 3 4 4 4 4 4 5 5 5 6 6 6
-1 -1 -1 -1 -1 -0 -0 0 1 1 2 2 3 2 3 2 2 2 2 1 1 1 1 2 2 1 -1 -1 -1 -1 -1 -0 -0 -1 -1 -1 1 2 2 2 2 2 2 3 3 4 4 4 5 5 5 5 5 5
-1 -1 -1 -1 -1 -0 -0 0 1 1 2 2 2 2 2 2 2 2 2 2 2 1 1 1 1 -0 -1 -1 -1 -1 -0 -0 0 -0 0 1 0 1 1 1 1 2 2 3 3 3 4 4 5 5 5 4 5 5
-2 -2 -1 -1 -1 -0 -0 -0 1 1 2 2 2 2 2 2 2 2 2 1 1 1 1 1 0 -2 -1 -1 -1 -1 -1 -1 -1 -0 -0 -0 -0 0 -0 0 0 1 2 3 3 3 4 4 5 5 5 5 4 3
-1 -2 -1 -1 -1 -0 -0 0 1 1 1 2 2 2 2 2 2 2 2 2 2 1 1 2 -0 -1 -1 -1 -1 -2 -1 -2 -2 -1 -1 -1 -1 -1 -1 -0 0 1 1 2 3 3 4 4 4 4 5 5 4 4
-1 -1 -1 -1 -1 -0 -0 1 1 1 1 1 1 2 2 2 2 2 2 2 2 1 0 1 0 -0 -1 -1 -1 -2 -2 -2 -2 -3 -2 -2 -2 -1 -0 -0 1 1 1 1 2 2 2 3 2 3 2 2 2 2
-1 -1 -2 -1 -1 -0 -0 1 1 1 1 2 2 2 2 2 2 2 2 2 2 1 1 1 1 0 -0 -1 -1 -1 -1 -1 -1 -1 -1 -1 -2 -1 -1 1 1 1 1 2 1 2 2 2 1 1 2 2 2 2
-1 -1 -1 -0 -0 -1 -0 0 1 1 2 2 2 2 2 2 2 2 2 2 1 1 1 2 1 1 0 -0 -1 -1 -1 -1 -1 -1 -1 -1 -1 -2 -1 -1 -0 1 1 1 1 1 2 1 1 1 1 2 2 2
-1 -1 -1 -1 -0 0 1 1 1 2 2 2 2 2 2 2 2 2 3 2 2 2 2 2 1 1 0 -0 -1 -1 -1 -1 -1 -1 -1 -1 -1 -0 -1 -1 -1 -1 -0 1 1 0 1 1 1 1 1 1 1 1
-1 -1 -0 -0 0 0 0 1 0 1 1 2 2 2 2 2 2 3 3 3 3 2 2 1 1 0 -1 -0 -1 -1 -1 -1 -1 -1 -1 -1 -1 -1 -1 -1 -1 -1 -1 -1 -1 -1 -1 -0 -0 -0 -0 0 -0 -0
-0 0 -0 -0 1 0 1 1 1 1 1 2 2 2 3 3 3 2 2 2 2 2 1 1 1 1 0 -0 0 -0 -0 -1 -1 -1 -1 -1 -1 -1 -1 -1 -1 -1 -1 -1 -1 -1 -1 -1 -1 -0 0 -0 -0 -0
1 1 0 0 0 0 1 1 1 2 2 2 2 2 2 2 2 2 2 2 2 1 1 2 2 1 1 1 1 0 0 -0 -1 -1 -0 -1 -0 -1 -1 -1 -1 -1 -1 -1 -1 -0 -1 -0 -0 -1 -0 -0 -0 -0
0 0 1 1 1 1 1 1 1 1 1 2 2 2 2 2 2 2 2 1 1 1 1 1 1 1 1 1 1 1 1 0 0 -0 -0 -0 -0 -0 -1 -1 -0 0 -0 -1 -1 -1 -1 -1 -1 -2 -2 -2 -1 -1
1 1 1 1 2 2 1 1 1 1 1 1 2 2 2 2 2 2 2 1 1 1 1 1 1 1 2 1 1 1 0 0 1 0 -0 -0 -0 0 -0 -1 -1 -1 -1 -1 -1 -1 -1 -1 -1 -1 -1 -2 -2 -2
1 2 1 1 1 1 1 1 2 1 2 2 2 2 2 3 3 3 2 2 2 2 1 1 1 1 1 1 1 1 1 1 1 0 -0 -0 -0 -0 -0 -1 -1 -1 -1 -1 -1 -1 -1 -1 -1 -1 -1 -1 -1 -1
1 1 1 1 1 1 1 1 1 1 2 2 2 2 2 2 2 2 2 2 2 1 1 1 2 1 2 2 1 1 0 -0 0 0 0 -0 -0 -0 -1 -1 -1 -1 -1 -1 -2 -2 -2 -1 -2 -2 -2 -2 -2 -2

GFSWCAN_700_temp_291.txt.gz
Temp
2 3 3 3 4 4 4 4 4 5 5 5 5 6 6 6 6 6 6 6 6 6 6 6 6 7 7 6 7 7 6 7 7 6 6 7 7 8 7 8 8 8 8 8 7 7 8 9 9 9 9 8 8 8
2 2 3 3 3 3 4 4 4 4 5 5 5 5 6 6 6 6 6 6 6 6 6 6 6 6 6 6 6 6 6 5 5 5 5 6 6 7 7 7 8 7 8 8 8 8 9 9 9 8 8 8 8 7
2 2 2 3 3 3 3 4 4 4 5 5 5 5 5 5 5 6 6 6 6 6 6 7 7 6 6 6 6 5 5 5 5 4 4 4 4 5 5 6 6 7 7 7 8 8 8 8 8 7 7 7 8 8
2 2 2 2 3 3 3 3 4 4 4 4 5 5 5 5 5 5 6 6 6 6 6 6 6 6 5 5 5 5 5 5 4 4 4 4 4 4 4 5 5 5 6 6 6 7 7 7 7 7 7 7 7 7
2 2 2 2 2 2 3 3 3 3 4 4 4 4 5 5 5 5 5 5 5 5 5 5 5 5 4 4 4 4 4 4 5 4 4 4 4 3 4 4 4 4 5 5 6 6 6 6 6 6 7 7 7 7
2 2 2 2 2 2 2 2 3 3 3 3 4 4 4 4 5 5 5 5 5 5 5 5 5 5 4 4 3 4 4 4 4 4 4 4 4 3 3 3 3 4 5 5 5 5 5 5 6 6 6 6 6 7
2 2 2 2 2 2 2 2 2 2 3 3 3 4 4 4 4 4 4 4 5 5 4 4 4 4 3 3 4 4 4 4 4 3 4 4 4 2 2 2 4 3 3 4 4 4 5 5 5 6 6 6 6 7
2 2 2 1 1 1 1 2 2 2 2 3 3 3 3 4 4 4 4 4 4 4 4 4 4 4 3 4 4 4 4 4 4 3 3 3 2 2 1 2 2 2 3 4 4 4 4 4 6 7 6 6 7 6
2 2 1 2 2 2 2 2 2 2 2 2 3 3 3 4 4 4 4 4 4 4 4 3 3 3 3 3 3 4 4 3 2 2 2 2 2 1 1 0 1 2 2 3 3 3 4 4 5 6 6 6 6 6
2 2 2 2 2 2 2 2 2 2 2 2 2 3 3 3 3 3 4 3 3 3 3 3 3 3 3 3 3 3 2 1 1 1 1 1 1 0 1 1 2 2 2 3 3 4 4 5 5 6 6 6 6 5
2 2 1 1 2 2 3 2 1 1 1 2 2 2 2 2 3 3 3 3 3 3 3 2 2 2 2 2 3 2 1 1 1 1 1 1 0 0 1 1 2 2 2 3 3 3 4 4 5 5 5 5 5 5
1 1 1 1 1 2 2 2 1 1 1 1 1 2 2 2 2 2 2 2 3 3 2 2 2 2 2 2 1 1 1 0 1 1 1 0 1 1 0 2 2 2 3 3 3 3 3 4 4 4 4 5 5 5
0 1 1 1 1 1 2 2 1 1 1 1 1 2 2 2 2 2 2 2 2 2 2 2 2 1 2 1 1 0 0 1 1 1 1 0 0 1 1 1 2 2 2 3 3 3 4 4 4 4 4 5 5 5
-0 -0 0 0 1 1 1 1 1 1 -0 0 1 2 2 3 3 3 2 2 2 2 2 2 2 1 1 -0 1 0 1 1 1 1 1 1 1 1 1 1 0 1 1 2 2 3 3 3 4 4 3 5 5 5
-0 -1 -0 -0 0 1 1 1 1 0 0 0 1 2 3 3 2 2 2 2 2 2 2 2 2 2 1 1 1 1 1 1 1 1 1 1 1 1 1 1 1 0 0 1 2 2 2 3 3 4 5 5 5 4
-1 -1 -1 -0 -0 0 0 -1 -0 -0 -1 -0 1 2 2 3 2 2 2 2 2 2 2 2 2 1 1 1 0 1 1 1 0 0 0 0 0 0 0 0 0 1 1 1 1 2 2 3 3 4 4 4 5 5
-1 -1 -1 -1 -1 -0 -1 -1 -0 -0 -0 0 1 2 2 2 2 2 2 2 2 1 1 1 1 1 1 1 0 0 0 -0 -1 -1 -1 -1 -0 -0 -1 -1 -0 1 1 1 1 2 2 3 3 3 4 4 5 5
-1 -1 -2 -2 -2 -1 -1 -1 -2 -1 -0 0 0 0 1 2 2 2 2 2 2 1 1 1 1 1 1 1 1 -0 -1 -1 -1 -1 -1 -1 -1 -1 -1 -1 -1 -0 1 2 2 2 2 3 3 4 4 5 5 5
-1 -2 -2 -2 -2 -2 -2 -1 -1 -1 -1 0 0 -0 1 2 2 2 2 2 2 1 1 1 1 1 1 -0 -1 -2 -2 -2 -2 -1 -1 -1 -1 -1 -1 -1 -0 0 1 2 2 3 3 3 3 3 4 4 5 5
-1 -1 -2 -3 -2 -2 -2 -2 -1 -1 -0 -0 0 1 1 2 2 2 2 2 2 1 1 1 1 0 0 -1 -2 -2 -2 -2 -2 -1 -1 -1 -1 -1 -1 -0 1 1 2 3 3 3 3 3 3 3 4 4 5 5
-1 -2 -3 -3 -3 -2 -2 -1 -1 -1 -0 -0 0 1 1 1 2 2 2 2 2 2 2 2 1 1 0 -1 -1 -2 -2 -2 -2 -2 -2 -1 -1 -2 -1 -0 -1 1 2 2 3 3 3 3 3 3 4 4 4 4
-2 -3 -4 -2 -3 -2 -2 -1 -1 -1 -0 -0 0 0 1 1 1 2 2 2 2 2 2 1 1 1 1 -1 -1 -1 -2 -2 -2 -2 -2 -2 -1 -1 -1 -0 1 0 1 2 2 3 3 3 3 3 4 4 4 4
-3 -3 -3 -3 -3 -2 -2 -1 -1 -1 -1 -1 1 1 1 1 1 2 2 2 2 2 1 1 2 2 1 0 -1 -1 -1 -1 -2 -2 -2 -2 -1 -1 -1 1 1 0 0 1 1 2 2 2 3 3 4 4 3 3
-3 -3 -3 -3 -2 -2 -2 -1 -1 -1 -1 0 0 1 1 2 2 2 2 2 2 2 2 1 1 1 1 0 -0 -1 -1 -1 -2 -2 -2 -1 -1 -1 -2 1 0 -0 0 1 1 1 1 1 1 1 2 3 3 3
-3 -3 -2 -2 -2 -2 -1 -1 -1 -2 0 0 1 1 2 2 1 2 2 3 3 2 2 1 1 1 0 0 -0 -0 -1 -1 -1 -2 -2 -1 -1 -2 -2 -0 0 0 0 0 0 1 0 0 1 1 1 2 2 2
-3 -3 -2 -2 -1 -1 -1 -1 -1 0 1 0 1 1 2 2 2 2 2 3 3 3 2 2 1 1 0 0 -0 -0 -0 -1 -1 -1 -1 -1 -1 -1 -2 -2 -0 0 0 0 0 0 0 1 0 0 1 1 1 2
-3 -2 -2 -1 -1 -1 -1 -0 -0 0 1 1 1 1 2 1 2 2 2 2 2 3 3 2 2 1 0 -0 -0 -0 -0 -1 -1 -1 -1 -1 -0 -1 -2 -2 -1 -1 -1 -2 -1 0 1 0 1 1 1 1 1 1
-2 -2 -1 -1 -1 -1 -1 -0 -0 0 0 1 1 1 2 2 2 2 2 2 2 2 2 2 1 1 1 0 0 0 -0 -0 -1 -1 -0 -0 0 0 -0 -1 -1 -1 -1 -1 -1 -1 -0 -0 -0 -0 -1 -1 -1 -1
-1 -2 -2 -1 -1 -1 -1 -0 0 1 1 1 1 1 1 2 2 2 2 2 2 2 2 1 1 1 1 1 0 0 0 -0 -1 -1 -1 -0 -0 -0 0 0 -0 -1 -1 -1 -1 -1 -1 -0 -1 -1 -1 -1 -1 -1
-1 -1 -1 -1 -1 -0 0 1 1 1 1 1 1 1 2 2 2 2 2 2 2 1 1 1 1 1 1 1 1 1 0 -0 -0 -1 -1 -1 -1 -1 -0 -0 -0 0 -0 -0 -0 -0 -1 -1 -1 -1 -1 -1 -1 -1
-0 -0 -0 -0 1 1 1 1 1 0 1 1 1 1 1 2 2 2 2 2 2 1 1 1 1 1 1 1 1 1 0 -0 -0 -1 -1 -1 -1 -1 -1 -1 -1 -0 -0 -0 -0 -0 -1 -1 -1 -2 -2 -2 -2 -2
0 0 0 0 0 0 1 1 1 1 1 1 1 1 2 2 2 2 2 2 2 2 1 1 1 1 1 1 1 1 1 0 -0 -0 -1 -1 -1 -1 -1 -2 -2 -2 -1 -1 -0 -0 -0 -0 -0 -1 -1 -2 -2 -2
-0 0 1 1 1 1 1 1 1 1 1 1 1 1 1 2 2 2 2 2 2 2 1 1 1 1 1 1 1 1 1 0 0 -0 -1 -1 -1 -1 -1 -2 -2 -2 -3 -2 -2 -1 -2 -1 -1 -1 -1 -1 -2 -2